Weather History for Lakeville, MN

Change the Weather History Date:

Sunday, January 6, 2013

  Actual Average Record
Temperature  
Mean Temperature 12 °F -  
Max Temperature 19 °F 20 °F 44 °F (2012)
Min Temperature 6 °F 4 °F -25 °F (2014)
Degree Days  
Heating Degree Days 52    
Moisture  
Dew Point 8 °F    
Average Humidity 83    
Maximum Humidity 100    
Minimum Humidity 63    
Precipitation  
Precipitation 0.00 in - - ()
Sea Level Pressure  
Sea Level Pressure 30.13 in    
Wind  
Wind Speed 8 mph (WSW)    
Max Wind Speed 13 mph    
Max Gust Speed 17 mph    
Visibility 10 miles    
Events      
Averages and records for this station are not official NWS values.
T = Trace of Precipitation, MM = Missing Value Source: NWS Daily Summary

Daily Weather History Graph

Daily Weather History Graph

Search for Another Location

Airport:

Trip Planner

Search our weather history database for the weather conditions in past years. The results will help you decide how hot, cold, wet, or windy it might be!

Date:

Astronomy

Jan. 06, 2013 Rise Set
Actual Time 7:49 AM CST 4:48 PM CST
Civil Twilight 7:16 AM CST 5:21 PM CST
Nautical Twilight 6:39 AM CST 5:58 PM CST
Astronomical Twilight 6:04 AM CST 6:33 PM CST
Moon 1:59 AM CST (1/6) 12:20 PM CST (1/6)
Length of Visible Light 10h 05m
Length of Day
8h 59m
Waning Crescent, 33% of the Moon is Illuminated
Jan 6
Waning Crescent
Jan 11
New
Jan 18
First Quarter
Jan 26
Full
Feb 3
Last Quarter

Hourly Weather History & Observations

Time (CST) Temp. Windchill Dew Point Humidity Pressure Visibility Wind Dir Wind Speed Gust Speed Precip Events Conditions
12:10 AM 12.2 °F -0.2 °F 10.4 °F 92% 30.00 in 7.0 mi West 9.2 mph - N/A   Clear
12:30 AM 12.2 °F -2.5 °F 10.4 °F 92% 30.00 in 7.0 mi WNW 12.7 mph - N/A   Clear
12:50 AM 12.2 °F -2.5 °F 10.4 °F 92% 30.02 in 10.0 mi West 12.7 mph - N/A   Clear
1:10 AM 10.4 °F -4.8 °F 8.6 °F 92% 30.02 in 10.0 mi WNW 12.7 mph - N/A   Clear
1:30 AM 10.4 °F -4.1 °F 8.6 °F 92% 30.02 in 10.0 mi West 11.5 mph - N/A   Clear
1:50 AM 10.4 °F -3.3 °F 8.6 °F 92% 30.03 in 10.0 mi West 10.4 mph - N/A   Clear
2:10 AM 10.4 °F -3.3 °F 8.6 °F 92% 30.04 in 10.0 mi West 10.4 mph - N/A   Clear
2:30 AM 8.6 °F -7.0 °F 6.8 °F 92% 30.04 in 10.0 mi West 12.7 mph - N/A   Clear
2:50 AM 10.4 °F -4.8 °F 8.6 °F 92% 30.05 in 10.0 mi West 12.7 mph - N/A   Clear
3:30 AM 10.4 °F -4.1 °F 10.4 °F 100% 30.06 in 10.0 mi West 11.5 mph - N/A   Clear
4:10 AM 12.2 °F -1.0 °F 10.4 °F 92% 30.07 in 10.0 mi West 10.4 mph - N/A   Clear
4:30 AM 12.2 °F -1.8 °F 12.2 °F 100% 30.08 in 10.0 mi West 11.5 mph - N/A   Scattered Clouds
4:50 AM 12.2 °F -2.5 °F 12.2 °F 100% 30.08 in 10.0 mi West 12.7 mph - N/A   Mostly Cloudy
5:10 AM 12.2 °F -0.2 °F 10.4 °F 92% 30.09 in 10.0 mi West 9.2 mph - N/A   Mostly Cloudy
5:30 AM 12.2 °F 0.7 °F 10.4 °F 92% 30.09 in 10.0 mi West 8.1 mph - N/A   Scattered Clouds
5:50 AM 10.4 °F -0.4 °F 8.6 °F 92% 30.09 in 10.0 mi West 6.9 mph - N/A   Clear
6:10 AM 8.6 °F -4.7 °F 6.8 °F 92% 30.11 in 10.0 mi West 9.2 mph - N/A   Clear
6:30 AM 8.6 °F -5.5 °F 5.0 °F 85% 30.12 in 10.0 mi WNW 10.4 mph - N/A   Clear
6:50 AM 8.6 °F -5.5 °F 3.2 °F 79% 30.13 in 10.0 mi WNW 10.4 mph - N/A   Clear
7:10 AM 8.6 °F -5.5 °F 3.2 °F 79% 30.15 in 10.0 mi West 10.4 mph - N/A   Clear
7:31 AM 6.8 °F -7.8 °F 3.2 °F 85% 30.15 in 10.0 mi West 10.4 mph - N/A   Clear
7:50 AM 6.8 °F -7.8 °F 1.4 °F 79% 30.16 in 10.0 mi West 10.4 mph - N/A   Clear
8:10 AM 6.8 °F -5.9 °F 1.4 °F 79% 30.16 in 10.0 mi WNW 8.1 mph - N/A   Clear
8:30 AM 6.8 °F -6.9 °F 1.4 °F 79% 30.17 in 10.0 mi West 9.2 mph - N/A   Clear
8:50 AM 8.6 °F -5.5 °F 3.2 °F 79% 30.18 in 10.0 mi West 10.4 mph - N/A   Clear
9:10 AM 8.6 °F -2.6 °F 3.2 °F 79% 30.18 in 10.0 mi West 6.9 mph - N/A   Clear
9:30 AM 10.4 °F 4.0 °F 3.2 °F 73% 30.18 in 10.0 mi West 3.5 mph - N/A   Clear
9:50 AM 12.2 °F 1.7 °F 5.0 °F 73% 30.19 in 10.0 mi West 6.9 mph - N/A   Clear
10:10 AM 12.2 °F 2.9 °F 6.8 °F 79% 30.20 in 10.0 mi West 5.8 mph - N/A   Clear
10:30 AM 14.0 °F 3.9 °F 6.8 °F 73% 30.20 in 10.0 mi West 6.9 mph - N/A   Clear
10:50 AM 15.8 °F 6.1 °F 6.8 °F 68% 30.20 in 10.0 mi West 6.9 mph - N/A   Clear
11:10 AM 15.8 °F 7.2 °F 6.8 °F 68% 30.21 in 10.0 mi West 5.8 mph - N/A   Clear
11:30 AM 15.8 °F 7.2 °F 8.6 °F 73% 30.20 in 10.0 mi West 5.8 mph - N/A   Clear
11:50 AM 17.6 °F 8.2 °F 8.6 °F 68% 30.20 in 10.0 mi West 6.9 mph - N/A   Clear
12:10 PM 17.6 °F 9.3 °F 8.6 °F 68% 30.19 in 10.0 mi West 5.8 mph - N/A   Clear
12:30 PM 17.6 °F 8.2 °F 8.6 °F 68% 30.19 in 10.0 mi West 6.9 mph - N/A   Clear
12:50 PM 19.4 °F 14.3 °F 8.6 °F 63% 30.18 in 10.0 mi West 3.5 mph - N/A   Clear
1:10 PM 19.4 °F 10.4 °F 8.6 °F 63% 30.19 in 10.0 mi West 6.9 mph - N/A   Clear
1:30 PM 17.6 °F 9.3 °F 10.4 °F 73% 30.18 in 10.0 mi SW 5.8 mph - N/A   Clear
1:50 PM 17.6 °F 12.3 °F 10.4 °F 73% 30.18 in 10.0 mi WSW 3.5 mph - N/A   Clear
2:10 PM 17.6 °F 12.3 °F 10.4 °F 73% 30.18 in 10.0 mi WSW 3.5 mph - N/A   Clear
2:30 PM 17.6 °F 9.3 °F 10.4 °F 73% 30.18 in 10.0 mi West 5.8 mph - N/A   Clear
2:50 PM 17.6 °F 10.7 °F 10.4 °F 73% 30.19 in 10.0 mi WSW 4.6 mph - N/A   Clear
3:09 PM 17.6 °F 9.3 °F 10.4 °F 73% 30.20 in 10.0 mi WSW 5.8 mph - N/A   Clear
3:30 PM 17.6 °F 12.3 °F 10.4 °F 73% 30.20 in 10.0 mi WSW 3.5 mph - N/A   Clear
3:50 PM 17.6 °F - 10.4 °F 73% 30.19 in 10.0 mi Calm Calm - N/A   Clear
4:10 PM 17.6 °F - 10.4 °F 73% 30.19 in 10.0 mi Calm Calm - N/A   Clear
4:50 PM 14.0 °F - 8.6 °F 79% 30.18 in 10.0 mi Calm Calm - N/A   Clear
5:10 PM 12.2 °F - 8.6 °F 85% 30.18 in 10.0 mi Calm Calm - N/A   Clear
5:30 PM 12.2 °F - 8.6 °F 85% 30.18 in 10.0 mi Calm Calm - N/A   Clear
5:50 PM 10.4 °F 4.0 °F 8.6 °F 92% 30.18 in 10.0 mi South 3.5 mph - N/A   Clear
6:10 PM 10.4 °F 4.0 °F 8.6 °F 92% 30.17 in 10.0 mi South 3.5 mph - N/A   Clear
6:30 PM 10.4 °F 2.2 °F 6.8 °F 85% 30.17 in 10.0 mi South 4.6 mph - N/A   Clear
6:50 PM 10.4 °F 2.2 °F 6.8 °F 85% 30.17 in 10.0 mi South 4.6 mph - N/A   Clear
7:10 PM 10.4 °F 2.2 °F 6.8 °F 85% 30.17 in 10.0 mi South 4.6 mph - N/A   Clear
7:30 PM 8.6 °F 0.1 °F 6.8 °F 92% 30.17 in 10.0 mi South 4.6 mph - N/A   Clear
7:50 PM 8.6 °F 2.0 °F 6.8 °F 92% 30.16 in 10.0 mi South 3.5 mph - N/A   Clear
8:10 PM 8.6 °F 2.0 °F 6.8 °F 92% 30.15 in 10.0 mi SSE 3.5 mph - N/A   Clear
8:30 PM 8.6 °F 2.0 °F 6.8 °F 92% 30.13 in 10.0 mi SSE 3.5 mph - N/A   Clear
9:10 PM 8.6 °F 2.0 °F 6.8 °F 92% 30.11 in 10.0 mi SSE 3.5 mph - N/A   Clear
9:30 PM 8.6 °F - 6.8 °F 92% 30.10 in 10.0 mi Calm Calm - N/A   Clear
9:50 PM 8.6 °F 2.0 °F 6.8 °F 92% 30.08 in 10.0 mi SE 3.5 mph - N/A   Clear
10:10 PM 8.6 °F 2.0 °F 6.8 °F 92% 30.08 in 10.0 mi SE 3.5 mph - N/A   Clear
10:30 PM 10.4 °F 4.0 °F 6.8 °F 85% 30.07 in 10.0 mi SSE 3.5 mph - N/A   Clear
10:50 PM 10.4 °F 0.8 °F 8.6 °F 92% 30.05 in 10.0 mi SSE 5.8 mph - N/A   Clear
11:30 PM 15.8 °F 6.1 °F 12.2 °F 86% 30.04 in 10.0 mi South 6.9 mph - N/A   Clear
11:50 PM 19.4 °F 7.2 °F 14.0 °F 80% 30.03 in 10.0 mi South 11.5 mph 17.3 mph N/A   Clear